伽利略0203星导航星座 (GSAT0203 (GALILEO 7))

导读

GALILEO 7 (263)是欧洲空间局(ESA)于2015年3月27日发射的伽利略导航系统卫星。作为伽利略全球卫星导航系统的组网卫星,它承担着全球定位、导航与授时服务任务,助力欧洲摆脱对其他导航系统的依赖,提升全球导航服务的自主性与精度,为民用、商用等领域提供可靠的定位服务,推动全球卫星导航体系多元化发展。

Basic Information
目录编号:
40544
目录名称:
GALILEO 7 (263)
国际标识:
2015-017A
轨道中心:
EARTH
卫星名称:
伽利略0203星
卫星全名:
伽利略0203星导航星座 (GSAT0203 (GALILEO 7))
卫星状态:
在轨 (已飞行4096 天)
发射日期:
2015-03-27 UTC
国别 :
(ESA)
星等 :
--
Orbit Information
数据来源 国际轨道数据 AOE轨道数据
星历时间 2026-06-11T16:19:42+0800
1天前
查看轨道信息
2026-06-12T16:00:00+0800
20小时前
查看轨道信息
半长轴 29600.089km 29600.031km
偏心率 0.0002092 0.0002093
轨道倾角 56.789° 56.789°
近地点辐角 278.158° 274.607°
升交点赤经 341.755° 341.728°
平近点角 81.832° 330.715°
近地点 23215.759km 23215.698km
远地点 23228.145km 23228.09km
周期 844.694分钟 844.691分钟
每日圈数 1.70476 1.704765
Detailed Information
平衡模式:
三轴稳定
覆盖范围:
全球
运营商:
欧盟空间计划局
运营商所在国:
法国大都会
使用方式:
暂无
Satellite Introduction
伽利略定位系统(Galileo)是一个全球导航卫星系统,于2016年投入使用由欧盟通过ESA创建,由欧盟空间计划局(EUSPA)运营。该系统有两个地面操控站,并且在高纬度地区提供比其他系统更好的定位服务。该卫星仍在工作。
2D Orbit Map
3D Orbit Map
Orbit Altitude Analysis Chart
Orbit Inclination Analysis Chart
Orbit Comprehensive Analysis Chart
View Comprehensive Chart